Regional Weather Roundup
Issued by NWS

Home | Current Version | Previous Version | Graphics & Text | Print | Product List | Glossary On
Versions: 1 2 3 4 5 6 7 8 9 10 11 12 13 14 15 16 17 18 19 20 21 22 23 24 25 26 27 28 29 30 31 32 33 34 35 36 37 38 39 40 41 42 43 44 45 46 47 48 49 50
861
ASUS45 KBOU 110107
RWRCO

WEATHER ROUNDUP FOR COLORADO
NATIONAL WEATHER SERVICE DENVER/BOULDER CO
600 PM MST WED FEB 10 2016

NOTE: "FAIR" INDICATES FEW OR NO CLOUDS BELOW 12000 FEET WITH NO
SIGNIFICANT WEATHER AND/OR OBSTRUCTIONS TO VISIBILITY.

COZ001>005-013-030-031-110200-
...NORTHWEST COLORADO...

CITY           SKY/WX    TMP DP  RH WIND       PRES   REMARKS
CRAIG          CLOUDY    16  11  80 CALM      30.34F
HAYDEN         CLOUDY    27  16  63 NE6       30.34S WCI  20
MEEKER         CLOUDY    26  18  71 NE5       30.33F WCI  20
MOUNT WERNER   NOT AVBL
STEAMBOAT SPGS CLOUDY    25  18  73 CALM      30.34F
WALDEN         CLOUDY    34   9  35 NE5       30.32R WCI  30
$$

COZ006>008-011-110200-
...WEST CENTRAL VALLEYS...

CITY           SKY/WX    TMP DP  RH WIND       PRES   REMARKS
GRAND JUNCTION CLOUDY    34  29  82 CALM      30.37S
MONTROSE       CLOUDY    37  25  61 N5        30.39R
EAGLE          CLEAR     34  21  60 CALM      30.37R
RIFLE          CLOUDY    32  22  66 SE8       30.37R WCI  25
DELTA          CLOUDY    38  29  70 E5        30.37R
NUCLA          CLOUDY    46  21  36 CALM      30.40R
$$

COZ017>023-064>068-110200-
...SOUTHWEST COLORADO...

CITY           SKY/WX    TMP DP  RH WIND       PRES   REMARKS
DURANGO        CLOUDY    42  19  39 NE3       30.35S
CORTEZ         CLOUDY    37  26  64 SE3       30.35S
PAGOSA SPRINGS CLOUDY    40  19  42 CALM      30.38S
TELLURIDE      CLOUDY    42   8  24 NW5       30.46R
WOLF CREEK PAS CLOUDY    32   0  25 W8        30.53S WCI  25
$$

COZ009-010-012-014-032>034-037-058>063-110200-
...CENTRAL COLORADO...

CITY           SKY/WX    TMP DP  RH WIND       PRES   REMARKS
ASPEN          CLOUDY    29  17  61 SE5       30.38R WCI  24
BUENA VISTA    CLOUDY    44  13  28 W13G22    30.30R
COPPER MTN     NOT AVBL
BERTHOUD PASS  FAIR      23  12  63 NW44G53   30.33F WCI   3
COTTONWOOD PAS CLOUDY    43  -8  11 NW3G18    30.37R
GUNNISON       CLOUDY     9   0  66 E3        30.47R
KREMMLING      CLOUDY     9   3  78 CALM      30.41R
LEADVILLE      CLOUDY    33   1  25 N10       30.38R WCI  25
MONARCH PASS   CLOUDY    28   1  31 W22       30.57R WCI  15
SALIDA         NOT AVBL
SUNLIGHT       CLOUDY    32  12  43 CALM      30.49R
WILKERSON PASS CLOUDY    32   0  25 W9G22     30.42R WCI  24
$$

COZ069>075-110200-
...SAN LUIS VALLEY/SANGRE DE CRISTO MOUNTAINS...

CITY           SKY/WX    TMP DP  RH WIND       PRES   REMARKS
ALAMOSA        CLOUDY    37  23  56 W6        30.33S
LA VETA PASS   CLOUDY    32   9  37 MISG      30.37F
SAGUACHE       CLOUDY    37  16  41 CALM      30.36R
$$

COZ035-036-038>040-110200-
...NORTHERN COLORADO FRONT RANGE...

CITY           SKY/WX    TMP DP  RH WIND       PRES   REMARKS
DENVER INTL AP CLOUDY    53  17  24 W7        30.13R
DMNS CITY PARK   N/A     60   7  12 W15G23    30.14R
AURORA         NOT AVBL
FRONT RANGE AP MOCLDY    41  21  45 MISG      30.14R
ERIE MUNI ARPT CLOUDY    57   8  14 W15G24    30.13R
BOULDER MUN AP CLOUDY    61   9  12 W22G31    30.13R
CENTENNIAL     CLOUDY    55  11  17 N8        30.15R
BROOMFIELD     MOCLDY    57  10  15 W15       30.16R
FORT COLLINS   CLOUDY    54  18  24 N7        30.14R
LONGMONT       CLOUDY    56  13  18 W5        30.14R
$$

COZ041-046-047-076>085-087-088-110200-
...PIKES PEAK/PALMER DIVIDE AND SOUTHERN FOOTHILLS...

CITY           SKY/WX    TMP DP  RH WIND       PRES   REMARKS
COLO. SPRINGS  CLOUDY    58   5  12 NW7       30.17S
A. F. ACADEMY  CLOUDY    54   8  15 N6        30.18R
SCHRIEVER AFB  FAIR      51  14  23 W8        30.17R
ELLICOTT       CLOUDY   N/A N/A N/A CALM      30.16R
FALCON         NOT AVBL
FORT CARSON    CLOUDY    56  14  18 W12       30.14R
LIMON          CLOUDY    37  26  64 NW10      30.12R
MONUMENT HILL  CLOUDY    41  19  42 W7        30.21S
TRINIDAD       CLEAR     52   5  15 W9        30.18R
$$

COZ042>045-048>051-090-091-110200-
...NORTHEAST COLORADO...

CITY           SKY/WX    TMP DP  RH WIND       PRES   REMARKS
GREELEY ARPT   CLOUDY    45  25  45 NW13      30.13R
AKRON          CLOUDY    44  26  49 N13       30.09R
BURLINGTON     CLOUDY    43  29  57 NW9       30.08R
WRAY           NOT AVBL
STERLING       CLOUDY    46  28  49 N17       30.07R
HOLYOKE        CLOUDY    45  28  53 W9        30.06R
FORT MORGAN    CLOUDY    45  25  44 N18       30.11R
$$

COZ086-089-092>099-110200-
...SOUTHEAST COLORADO...

CITY           SKY/WX    TMP DP  RH WIND       PRES   REMARKS
PUEBLO         CLOUDY    56  14  19 NW6       30.10R
LA JUNTA       CLEAR     59  17  19 W12       30.06R
LAMAR          CLEAR     52  27  38 S10       30.01S
SPRINGFIELD      N/A     51  11  20 NW9       30.08R
$$




USA.gov is the U.S. government's official web portal to all federal, state and local government web resources and services.